Погода в Лосиноборске

Погода в Лосиноборске : погода сейчас, прогноз погоды и архив. Всё, что Вы хотите узнать о погоде в Лосиноборске!

Хотите узнать прогноз погоды в Лосиноборске? Тогда Вам сюда: Погода в Лосиноборске

Поиск расширенной информации на нашем сайте:

Другие новости

Новости СМИ2

Главная страница сайта

Новости сайта

03.07.2017

Напоминаем, что на нашем специализированном сайте Метеоцентр.Азия вы можете получить высокодетализированные автоматические прогнозы погоды по пунктам России, СНГ и мира в авиационном формате (включающие направление и скорость ветра, видимость, явления погоды, количество и форму облачности, нижнюю и верхнюю границу облачности).


Погода в Лосиноборске - сегодня

Время (UTC), дата Ветер
(°,м/с) 
Видим.   Явления Облачность Т
(°С)
Тd
(°С)
f(%) Тe
(°С)
Pmin
(гПа)
dP
(гПа)
Po
(мм)
O2
(г/м3)
Тmin Tmax R s Состояние
почвы
03 18.08.17 тихо ()   20000 м    9/6 1000 м средняя 
[Sc|Ac trans]
+16.1 +12.3 78 +20  1014.4  749  283           
06 18.08.17 160 (Ю) 20000 м    9/3 1000 м средняя 
[Cu med, cong|Ac As]
+19 +14.2 74 +28  1014.1  -0.1  749  279           
09 18.08.17 160 (Ю) 20000 м    10/8 1000 м средняя 
[Sc|Ac und]
+18 +13.4 74 +25  1013.9  -0.3  748  280           
12 18.08.17 тихо ()   10 км  в посл. час ливневой дождь  10/8 300 м кучево-дожд., средняя 
[Cb cap|Ac und]
+15.3 +14.8 97 +24  1014  748  282    +19.7     
15 18.08.17 тихо ()   н/о  {ливн. осадки}  10/10 300 м кучево-дожд. 
[Cb cap]
+14.3 +13.9 97 +21  1014.2  0.2  749  284           
18 18.08.17 тихо ()   н/о  в посл. час ливневой дождь  10/10 300 м кучево-дожд. 
[Cb cap]
+13.8 +13.4 97 +20  1013.8  -0.5  748  284           
21 18.08.17 тихо ()   н/о  {ливн. осадки}  10/10 300 м кучево-дожд. 
[Cb cap]
+13.3 +12.9 97 +19  1012.9  -0.9  748  285           
00 19.08.17 тихо ()   20000 м  слаб. дождь{ливн. осадки}  10/0 средняя 
[As op]
+13 +12.4 96 +18  1012.4  -0.5  747  285  +13      влажная 
03 19.08.17 тихо ()   20000 м  слаб. дождь  10/0 средняя 
[As op]
+13 +12.6 97 +18  1012.7  0.3  747  285           
06 19.08.17 320 (СЗ) 20000 м  {дождь}  10/10 1000 м 
[Sc]
+14.6 +13.5 93 +22  1012.6  0.1  747  283           
09 19.08.17 320 (СЗ) 20000 м    10/10 600 м кучево-дожд. 
[Cb cap]
+15 +13.6 91 +22  1013  0.4  748  283           
12 19.08.17 320 (СЗ) 20000 м    10/10 600 м кучево-дожд. 
[Cb cap]
+14.1 +12.3 89 +19  1014.2  749  284    +15  0.7     
15 19.08.17 270 (З) н/о    10/10 1000 м 
[Sc]
+12.8 +11.3 91 +17  1015.2  749  286           
18 19.08.17 270 (З) н/о    3/3 1000 м 
[Sc]
+9.8 +8.6 92 +11  1015.6  0.1  749  290           
21 19.08.17 270 (З) н/о    9/0 средняя 
[Ac und]
+9 +8.4 96 +10  1015.9  0.3  750  291           
00 20.08.17 290 (З) 20000 м    9/0 верхняя 
[Ci fib]
+9.2 +8.4 95 +10  1016.4  0.5  750  291  +9        влажная 
03 20.08.17 320 (СЗ) 20000 м    8/0 верхняя 
[Ci fib]
+14.5 +9.2 70 +16  1016.7  0.6  750  285           
06 20.08.17 020 (С) 20000 м    8/5 600 м верхняя 
[Cu med, cong|Ci fib]
+17.4 +6.5 49 +18  1015.9  -0.6  750  283           
09 20.08.17 020 (С) 20000 м    8/8 1000 м 
[Sc]
+16.6 +6.9 53 +17  1015.7  -0.3  750  284           
12 20.08.17 340 (С) 20000 м    9/3 1000 м верхняя 
[Sc|Cs]
+17 +9.4 61 +18  1015.3  -0.3  749  283    +17.4       
15 20.08.17 260 (З) н/о    8/0 верхняя 
[Ci fib]
+11.2 +9.2 87 +12  1016.4  0.8  750  289           
18 20.08.17 тихо ()   н/о    6/0 средняя 
[Ac und]
+7.2 +6.8 97 +7  1017  0.3  750  293           
21 20.08.17 тихо ()   н/о  местами туман поземный  3/3 1000 м 
[Sc]
+5.2 +5 99 +5  1017  -0.1  750  296           
00 21.08.17 тихо ()   10 км  местами туман поземный  8/8 1000 м 
[Sc]
+5.8 +4.6 92 +6  1017.6  0.6  751  295  +4.6        влажная 
03 21.08.17 320 (СЗ) 10 км  {туман}  10/10 300 м кучево-дожд. 
[Cb cap]
+10.1 +7.8 86 +11  1018.1  0.7  751  291           
Время (UTC), дата Ветер
(°,м/с) 
Видим.   Явления Облачность Т
(°С)
Тd
(°С)
f(%) Тe
(°С)
Pmin
(гПа)
dP
(гПа)
Po
(мм)
O2
(г/м3)
Тmin Tmax R s Состояние
почвы

Для получения пояснительной информации подведите курсор к названию столбца.

ПОГОДА в Лосиноборске - архив

Всё, что Вы хотите узнать о погоде в Лосиноборске - удобно и подробно!

Выберите нужную дату (начиная с 1 января 2015* года) и нажмите кнопку "Найти".
Будут отображены архивные сводки погоды по пункту Лосиноборск, начиная с указанной даты.


Отображать данные в формате CSV (для использования в таблицах Excel)


Внимание! Наш архив погоды предназначен исключительно для личного некоммерческого использования в познавательных целях. Если Вам необходимы официальные справки о состоянии погоды (для производственных, юридических, коммерческих и т.п. целей), обращайтесь в органы Росгидромета.

*Примечание: данная дата относится к архиву по метеостанциям СССР (Россия, СНГ, Балтия).
Архив по метеостанциям Зарубежной Европы и Азии (кроме Китая) хранится 10 дней, по другим регионам земного шара (Китай, Африка, Америка, Австралия, Океания) - 1 день.

Лосиноборск - район местоположения метеостанции


Название, широта, долгота, высота метеостанции:
Лосиноборск 58.4°ш. 89.4°д. 137 м над ур. моря [Российская Федерация]

Дополнительная информация

В oтличие oт бoльшинства пoгoдных сайтoв мы публикуем пoдрoбную метеoинфoрмацию в детальнoм прoфессиoнальнoм фoрмате.

Характеристики температуры и влажнoсти вoздуха измеряются на высoте 2 м в тени вдали oт зданий и деревьев.
Скoрoсть ветра измеряется на высoте 10 м (на урoвне рoста челoвека скoрoсть ветра ниже в 1.5-2 раза). Если метеoстанция нахoдится в гoрoде или в лесу, тo скoрoсть ветра занижена на 2-4 м/с пo сравнению с oткрытым местoм. Скoрoсть ветра над акватoриями крупных рек и oзёр, а также на вершинах хoлмoв на 2-5 м/с выше, чем в oбычных услoвиях.
Атмoсфернoе давление в разных тoчках местнoсти мoжет значительнo oтличаться oт давления на метеoстанции, в зависимoсти oт услoвий рельефа (при пoдъёме на 10 м давление пoнижается примернo на 1 мм рт.ст.).